Home > Weather > Milton Keynes > Past weeks

Flag for United Kingdom Past Weather in Milton Keynes, England, United Kingdom — Yesterday and Last 2 Weeks

Now
55 °F

Cool.


Feels Like: 55 °F
Forecast: 53 / 73 °F
Wind: 2 mph from Southeast

Location: Luton Airport

Current Time: Aug 30, 2016 at 2:42:53 AM

Latest Report: Aug 30, 2016 at 2:20 AM


Visibility: N/A

Pressure: 30.27 "Hg

Humidity: 88%

Dew Point: 52 °F

Location of Milton KeynesLocation

Past Weather in Milton Keynes — Graph

°F

Milton Keynes Temperature Yesterday

Maximum temperature yesterday: 72 °F (at 3:50 PM)
Minimum temperature yesterday: 55 °F (at 11:20 PM)
Average temperature yesterday: 63 °F

High & Low Weather Summary for the Past Weeks

 TemperatureHumidityPressure
High88 °F (Aug 24, 3:20 PM)100% (Aug 15, 4:20 AM)30.30 "Hg (Aug 15, 4:20 AM)
Low50 °F (Aug 15, 4:20 AM)30% (Aug 26, 3:50 PM)29.65 "Hg (Aug 19, 4:50 PM)
Average65 °F78%30.01 "Hg
* Reported Aug 15 1:20 AM — Aug 30 1:20 AM, Milton Keynes, Weather by CustomWeather, © 2016

Note: Actual official high and low records may vary slightly from our data, if they occured in-between our weather recording intervals... More about our weather records

Advertising

Milton Keynes Weather History for the Previous 24 Hours

Scroll right to see more
 ConditionsComfort  
Time TempWeatherWind HumidityBarometerVisibility
1:20 AM
Tue, Aug 30
55 °FCool.2 mph82%30.27 "HgN/A
12:50 AM55 °FCool.2 mph82%30.27 "HgN/A
12:20 AM59 °FPassing clouds.3 mph77%30.27 "HgN/A
11:50 PM
Mon, Aug 29
57 °FCool.2 mph77%30.27 "HgN/A
11:20 PM55 °FCool.3 mph82%30.27 "HgN/A
10:50 PM59 °FCool.No wind72%30.24 "HgN/A
10:20 PM59 °FCool.No wind72%30.24 "HgN/A
9:50 PM59 °FCool.1 mph72%30.24 "HgN/A
9:20 PM61 °FCool.1 mph68%30.24 "HgN/A
8:50 PM61 °FCool.1 mph68%30.24 "HgN/A
8:20 PM66 °FSunny.3 mph52%30.24 "Hg10 mi
7:50 PM68 °FPassing clouds.5 mph49%30.21 "HgN/A
7:20 PM68 °FMild.6 mph49%30.21 "HgN/A
6:50 PM70 °FMild.7 mph46%30.21 "HgN/A
6:20 PM70 °FPartly sunny.7 mph50%30.21 "HgN/A
5:50 PM72 °FPassing clouds.7 mph44%30.21 "HgN/A
5:20 PM70 °FPassing clouds.9 mph50%30.21 "HgN/A
4:50 PM70 °FPassing clouds.8 mph50%30.21 "HgN/A
4:20 PM72 °FMild.12 mph47%30.21 "HgN/A
3:50 PM72 °FMild.13 mph47%30.21 "HgN/A
3:20 PM70 °FPassing clouds.12 mph46%30.21 "HgN/A
2:50 PM70 °FScattered clouds.9 mph53%30.21 "HgN/A
2:20 PM68 °FPartly sunny.10 mph64%30.21 "HgN/A
1:50 PM70 °FPartly sunny.10 mph60%30.21 "HgN/A
1:20 PM70 °FScattered clouds.8 mph60%30.18 "HgN/A
12:50 PM68 °FScattered clouds.8 mph69%30.18 "HgN/A
12:20 PM66 °FPassing clouds.8 mph73%30.21 "HgN/A
11:50 AM64 °FBroken clouds.9 mph78%30.18 "HgN/A
11:20 AM64 °FPassing clouds.6 mph73%30.18 "HgN/A
10:50 AM64 °FPartly sunny.6 mph78%30.18 "HgN/A
10:20 AM64 °FPartly sunny.9 mph78%30.18 "HgN/A
9:50 AM63 °FPartly sunny.7 mph88%30.18 "HgN/A
9:20 AM63 °FLow clouds.8 mph88%30.15 "HgN/A
8:50 AM61 °FPartly sunny.9 mph94%30.15 "HgN/A
8:20 AM61 °FScattered clouds.6 mph94%30.15 "HgN/A
7:50 AM59 °FScattered clouds.5 mph100%30.15 "HgN/A
7:20 AM57 °FCool.3 mph100%30.12 "Hg5 mi
6:50 AM57 °FPassing clouds.5 mph100%30.12 "HgN/A
6:20 AM57 °FOvercast.3 mph100%30.12 "HgN/A
5:50 AM57 °FOvercast.3 mph100%30.09 "HgN/A
5:20 AM57 °FLow clouds.5 mph100%30.09 "HgN/A
4:50 AM57 °FLow clouds.5 mph100%30.09 "HgN/A
4:20 AM57 °FPassing clouds.6 mph100%30.09 "HgN/A
3:50 AM57 °FPassing clouds.8 mph100%30.07 "HgN/A
3:20 AM57 °FLow clouds.7 mph100%30.07 "HgN/A
2:50 AM57 °FPassing clouds.7 mph100%30.07 "HgN/A
2:20 AM57 °FPartly cloudy.5 mph100%30.07 "HgN/A
Weather by CustomWeather, © 2016

See weather overviewHow to use our weather pages